Regional Weather Roundup
Issued by NWS San Diego, CA

Current Version | Previous Version | Text Only | Print | Product List | Glossary On
Versions: 1 2 3 4 5 6 7 8 9 10 11 12 13 14 15 16 17 18 19 20 21 22 23 24 25 26 27 28 29 30 31 32 33 34 35 36 37 38 39 40 41 42 43 44 45 46 47 48 49 50
000
ASUS46 KSGX 100011
RWRSGX

SAN DIEGO HOURLY WEATHER ROUNDUP
NATIONAL WEATHER SERVICE SAN DIEGO CA
500 PM PDT THU APR 09 2020

NOTE: "FAIR" INDICATES FEW OR NO CLOUDS BELOW 12,000 FEET WITH NO
SIGNIFICANT WEATHER AND/OR OBSTRUCTIONS TO VISIBILITY.

CAZ042-043-060-061-PZZ750-775-100100-

GREATER SAN DIEGO AREA

CITY           SKY/WX    TMP DP  RH WIND       PRES   REMARKS
SAN DIEGO AP   PTSUNNY   62  51  67 SW12      30.09S
NATIONAL CITY    N/A    N/A N/A N/A SW9       30.07F
CHULA VISTA      N/A     61  51  70 W5        29.98F
BROWN FIELD    CLOUDY    61  46  57 SW13G20   30.06F
MIRAMAR MCAS   CLOUDY    59  47  64 SW10      30.06S
MONTGOMERY FLD CLOUDY    58  45  62 SW10      30.07S
GILLESPIE FLD  CLOUDY    61  45  55 SW7       30.06F
LEMON GROVE      N/A     58  47  65 CALM      30.05S

$$

NORTH SAN DIEGO COUNTY

CITY           SKY/WX    TMP DP  RH WIND       PRES   REMARKS
CAMP PENDLETON RAIN      55  49  80 VRB5      30.07S
OCEANSIDE AP   LGT RAIN  56  54  93 W8        30.07S FOG
OCEANSIDE HBR    N/A     56  53  90 SW5       30.15S
VISTA            N/A     55  50  84 CALM      30.06S
CARLSBAD       LGT RAIN  57  49  74 S6        30.06S
ENCINITAS        N/A     56  50  81 SW2         N/A
DEL MAR          N/A     57  50  78 SW7       30.08S
LA JOLLA SCRIP   N/A     57  50  76 S8        30.07S
ESCONDIDO        N/A     56  49  78 CALM      30.07S
RANCHO BERNARD   N/A     55  50  82 N3        30.07S
POWAY            N/A     59  49  69 W1        30.09S

$$

EAST SAN DIEGO COUNTY

CITY           SKY/WX    TMP DP  RH WIND       PRES   REMARKS
RAMONA         LGT RAIN  52  48  86 S5        30.06S
LA MESA          N/A     59  46  63 CALM      30.02F
JAMUL            N/A     57  48  70 CALM      30.07F
DESCANSO N       N/A     45  42  91 SW1       30.07F
MT. LAGUNA OBS   N/A     34  34  99 CALM      30.11F
CAMPO            N/A     52  42  69 W9        30.01F

$$

ORANGE COUNTY AND THE LOS ANGELES BASIN

CITY           SKY/WX    TMP DP  RH WIND       PRES   REMARKS
JOHN WAYNE AP  LGT RAIN  57  51  80 VRB5      30.07F FOG
LAGUNA BEACH     N/A     55  52  90 CALM      30.07S
LAKE FOREST FR   N/A     50  47  90 CALM      29.97F
HUNTINGTON BCH   N/A     53  52  96 CALM      30.08S
LOS ALAMITOS   LGT RAIN  53  51  91 CALM      30.07F FOG
FULLERTON      HVY RAIN  53  49  86 CALM      30.07S FOG
LONG BEACH     LGT RAIN  53  50  89 E7        30.07F FOG
L.A. AP        RAIN      55  50  83 E10       30.07S
L.A. DOWNTOWN  LGT RAIN  54  48  80 E5        30.07F

$$

THE INLAND EMPIRE

CITY           SKY/WX    TMP DP  RH WIND       PRES   REMARKS
CORONA         LGT RAIN  52  50  93 CALM      30.09S
ALTA LOMA        N/A     46  44  93 CALM      30.11R
CHINO          LGT RAIN  54  47  77 N7        30.09S
ONTARIO        RAIN      51  47  86 NE6       30.08S FOG
RIVERSIDE AP   RAIN      51  48  89 CALM      30.08S
MORENO VALLEY    N/A     49  49  99 SE2       30.06S
MARCH ARB      LGT RAIN  49  47  90 SE5       30.06S
HORSETHIEF CYN   N/A     49  46  88 NE3       30.09S
PERRIS           N/A     49  49  99 CALM      30.05S
LAKE ELSINORE    N/A     50  47  88 CALM      30.02F
HEMET EAST       N/A     48  44  88 CALM      30.12S
FRENCH VALLEY  CLOUDY    50  48  93 CALM      30.07S
TEMECULA         N/A     51  51  99 CALM      30.05S

$$

SAN BERNARDINO AND RIVERSIDE COUNTY MOUNTAINS

CITY           SKY/WX    TMP DP  RH WIND       PRES   REMARKS
BIG BEAR AP    LGT SNOW  32  30  93 CALM      30.01S VSB 3/4
BIG BEAR LAKE    N/A     32  31  96 W1        30.11F
LK ARROWHEAD N   N/A     34  34 100 CALM      30.09S
WRIGHTWOOD       N/A     32  31  95 CALM      30.12S
ANGELUS OAKS     N/A     33  31  92 CALM      30.09S
IDYLLWILD        N/A     36  34  93 CALM      30.04S
GARNER VALLEY    N/A     41  38  89 CALM      30.07

$$

SOUTHERN DESERT INCLUDING THE COACHELLA VALLEY

CITY           SKY/WX    TMP DP  RH WIND       PRES   REMARKS
PALM SPRINGS   LGT RAIN  59  44  57 S3        30.07S
THOUSAND PALMS   N/A     60  45  57 W6        30.02S
PALM DESERT      N/A     62  44  52 N6          N/A
INDIO            N/A     63  43  48 W2        30.03S
THERMAL        LGT RAIN  65  43  44 VRB5      30.02S
BORREGO AP     CLOUDY    59  45  58 NW9       30.03S
OCOTILLO WELLS   N/A     67  44  43 E3        29.96F
BLYTHE         FAIR      69  30  23 S7        29.99F
IMPERIAL AP    CLOUDY    69  40  34 NE9       29.99F
EL CENTRO NAS  PTSUNNY   68  35  29 SW5       30.02F
YUMA AZ        FAIR      69  35  28 CALM      30.00F
MEXICALI       MOSUNNY   70  34  26 CALM      30.02F

$$

UPPER DESERT

CITY           SKY/WX    TMP DP  RH WIND       PRES   REMARKS
VICTORVILLE AP RAIN     N/A N/A N/A CALM      30.06F FOG
HESPERIA         N/A     44  42  92 CALM      30.14R
APPLE VALLEY     N/A     45  42  88 W1        30.13S
PALMDALE       LGT RAIN  45  43  93 CALM      30.05F
LANCASTER      LGT RAIN  46  43  89 NE12      30.06F
EDWARDS AFB    LGT RAIN  47  47 100 NE12      30.04S
DAGGETT        LGT RAIN  52  44  74 N5        30.06S
29 PALMS N     CLOUDY    55  39  54 SE8       30.10S
29 PALMS JTNP    N/A     57  42  57 SE6       29.99F
NEEDLES        FAIR      68  30  24 CALM      30.00F

$$

REGIONAL REPORTS

CITY           SKY/WX    TMP DP  RH WIND       PRES   REMARKS
SANTA BARBARA  LGT RAIN  53  50  89 E8        30.04F
SANDBERG       SNOW      37  34  89 E12       30.03S VSB 1/4 WCI  29
LAS VEGAS NV   PTSUNNY   59  34  39 S10       30.04F
PHOENIX AZ     FAIR      71  31  22 VRB3      29.96F
TIJUANA        PTSUNNY   61  46  59 S6        30.08F
ENSENADA NW      N/A     62  32  32 W1        30.03F

$$

OFFSHORE ISLANDS

CITY           SKY/WX    TMP DP  RH WIND       PRES   REMARKS
CATALINA ARPT  LGT RAIN  49  46  90 CALM      30.05F FOG
SAN CLEMENTE I RAIN      53  47  79 SW12      30.08S
SAN NICOLAS IS LGT RAIN  51  49  92 S7        30.04F

$$

MARINE AND OFFSHORE BUOY REPORTS

STATION/POSITION SKY/WX   TEMP    WIND        PRES    VSBY  SWELL
                          AIR SEA DIR/SP/G                  HT/PER/DIR
                          (F)     (DEG/KT/KT) (MB)    (MI)  (FT/S/D)
TANNER BANKS               55     260/ 12/ 16 1017.9F
S CLEMENTE BASIN           58     270/ 10/ 12 1018.2F         5/170/16
SAN NICOLAS IS.               58                N/A           5/220/15
SO. S. ROSA ISLA              58              1017.9S
W. S. BARBARA CH           53 56  100/ 12/ 17 1017.1F         5/250/15
M. S. BARBARA CH           54 56   90/ 16/ 19 1017.7F         2/270/16
S. MONICA BASIN            53 59  100/  6/  8 1018.1F         3/210/16
S PEDRO CHANNEL               59                N/A           2/190/17
OCEANSIDE OFFSHR              60                N/A           3/190/15
TORREY PINES OTR              58                N/A           3/210/15
SAN DIEGO BAY                 63              1018.1
POINT LOMA SOUTH              61                N/A           3/190/17

$$




USA.gov is the U.S. government's official web portal to all federal, state and local government web resources and services.